Lid_Strength_Index
10 10 9 10 10 9 11 11 14 12 11 9 7 6 6 5 5 5 4 4 3 3 2 2 2 1 1 1 1 1 1 1 1 0 0 0 0 1 1 2 1 0 0 0
12 9 9 11 9 9 9 9 10 9 10 6 5 6 6 5 5 5 4 4 3 3 2 2 2 2 1 1 1 1 1 1 1 1 1 1 0 1 1 1 1 1 1 0
15 10 10 13 10 9 9 8 8 11 8 6 6 6 5 5 5 4 4 3 3 3 2 2 2 1 2 1 1 1 1 1 1 1 1 1 1 1 2 2 1 1 1 1
14 12 18 10 7 7 8 7 7 7 6 6 6 5 4 4 4 4 4 3 3 3 3 2 3 3 2 2 2 3 3 2 1 1 1 1 1 1 1 1 2 2 1 1
16 15 12 10 8 8 10 9 6 7 7 6 5 5 5 3 3 3 3 3 3 3 4 3 3 3 4 3 4 4 4 3 3 2 2 1 1 1 1 1 1 1 1 1
14 17 17 12 8 6 6 12 7 7 7 6 6 9 7 4 4 4 4 4 4 4 4 4 4 4 5 4 5 5 5 4 3 3 3 2 1 1 1 1 1 1 1 1
15 16 12 8 7 6 13 13 7 6 5 6 7 6 5 4 5 5 5 5 5 5 5 4 4 3 5 5 6 5 5 4 4 3 4 3 2 1 1 1 1 1 1 1
13 16 17 7 7 11 8 5 5 5 5 5 5 5 5 6 6 6 6 6 5 6 5 5 4 5 5 7 5 4 5 4 4 4 4 4 3 3 2 2 2 2 2 2
12 11 7 6 6 5 4 5 5 5 4 5 6 6 6 7 7 8 7 8 8 8 8 7 6 6 7 6 5 6 6 6 5 5 4 4 4 4 4 3 2 2 2 2
9 7 7 5 4 4 4 5 4 3 4 5 6 7 7 7 8 8 9 9 9 9 10 9 8 7 7 7 7 7 7 6 6 6 6 5 5 5 5 5 4 3 3 3
8 6 6 5 4 4 4 3 3 4 5 6 7 7 8 8 9 9 10 10 11 12 12 11 10 9 9 8 8 9 8 7 8 8 8 7 6 5 5 5 4 4 3 2
10 6 7 6 4 3 4 4 4 5 6 6 7 8 8 9 9 10 11 12 13 13 13 13 12 12 11 10 11 11 11 11 10 10 10 10 9 8 9 9 8 8 8 6
6 5 4 4 3 3 4 4 4 5 6 8 8 8 9 9 10 11 12 13 14 15 14 14 14 14 13 13 12 12 12 12 12 11 10 11 11 11 11 9 10 10 10 10
3 4 5 4 4 4 4 3 4 5 6 7 8 9 9 10 11 13 14 14 15 15 15 15 15 14 13 12 13 13 12 12 12 11 10 10 10 10 10 10 11 10 10 10
4 4 4 3 4 4 3 4 5 6 8 9 9 9 10 11 13 14 14 15 16 16 16 15 16 15 14 14 13 13 13 12 11 12 11 11 10 10 10 9 9 9 8 9
4 4 4 5 5 4 4 5 6 8 8 9 9 10 11 12 13 14 15 16 17 18 17 16 16 14 14 14 14 14 13 13 14 13 13 12 11 11 11 11 11 10 9 8
5 6 6 5 5 5 5 6 6 8 9 9 10 10 12 13 14 16 17 17 17 17 16 16 16 16 15 15 15 14 14 13 13 12 12 11 11 11 11 11 10 10 10 8
5 4 4 4 5 6 7 6 7 8 9 10 10 11 13 15 16 17 18 18 18 17 17 18 17 17 15 14 13 12 12 10 11 10 8 8 7 7 9 10 10 10 9 9
4 5 5 5 5 6 7 7 7 7 8 10 11 13 14 15 16 18 18 18 19 19 18 18 17 16 15 14 13 12 11 10 9 6 5 8 6 7 8 9 9 8 8 8
4 4 4 5 5 6 7 8 6 8 9 10 12 14 15 16 16 18 18 19 18 19 18 18 17 16 15 14 13 9 6 4 4 5 5 5 6 6 7 9 7 8 8 8
5 5 6 6 6 7 8 7 7 9 10 11 13 14 16 16 17 18 19 20 20 18 18 17 16 17 16 15 11 6 6 5 3 4 4 5 5 6 6 6 7 7 8 7
5 6 6 6 7 8 7 6 7 8 10 12 13 14 15 17 17 18 19 20 19 19 19 18 17 18 17 16 10 8 8 7 6 4 5 5 5 4 5 5 5 5 5 5
6 6 6 7 8 8 6 7 8 8 10 12 13 14 16 17 17 19 21 19 19 19 19 18 18 18 18 14 12 11 10 10 9 9 8 7 5 5 5 4 3 3 3 2
5 5 5 6 6 6 7 7 7 8 9 10 11 13 15 17 17 17 18 19 20 20 19 18 18 18 17 15 14 13 12 11 11 11 11 13 11 9 8 7 6 5 5 5
6 5 5 6 6 6 6 6 7 8 9 10 11 12 14 15 18 18 18 19 20 20 20 19 19 19 17 17 16 15 14 13 13 11 12 12 12 13 13 12 11 10 9 9
6 6 5 5 6 6 6 6 7 8 9 10 10 12 13 14 16 18 19 19 19 21 20 20 20 19 18 17 17 17 15 15 14 14 14 14 14 14 14 14 14 13 13 12
6 7 6 6 6 6 6 7 7 8 9 9 10 10 12 13 15 17 19 20 20 21 21 21 21 21 20 19 18 18 18 16 16 15 15 15 15 15 15 15 15 15 15 14